This is the latest recevied weather packets stored in our database for station/object VA2EYZ-13. If no packets are shown the sender has not sent any weather packets the latest 10 day(s).
| Time | Temp. | Humidity | Pressure | Rain* | Wind** | Luminosity | Snow |
|---|---|---|---|---|---|---|---|
| 1788401658 | 18.33° C | 92% | 1012 hPa | - | - | - | - |
| 1788401329 | 18.33° C | 92% | 1013.2 hPa | - | - | - | - |
| 1788400275 | 18.33° C | 90% | 1013.2 hPa | - | - | - | - |
| 1788398922 | 18.33° C | 90% | 1012 hPa | - | - | - | - |
| 1788398620 | 18.89° C | 90% | 1012 hPa | - | - | - | - |
| 1788398115 | 18.89° C | 88% | 1012 hPa | - | - | - | - |
| 1788397304 | 19.44° C | 84% | 1013 hPa | - | - | - | - |
| 1788396731 | 19.44° C | 82% | 1012.8 hPa | - | - | - | - |
| 1788396292 | 19.44° C | 81% | 1012.8 hPa | - | - | - | - |
| 1788395972 | 20° C | 80% | 1012.8 hPa | - | - | - | - |
| 1788395634 | 20° C | 80% | 1012 hPa | - | - | - | - |
| 1788395330 | 20° C | 78% | 1012 hPa | - | - | - | - |
| 1788391972 | 21.11° C | 72% | 1012 hPa | - | - | - | - |
| 1788391483 | 21.11° C | 72% | 1012 hPa | - | - | - | - |
| 1788390797 | 21.67° C | 72% | 1012 hPa | - | - | - | - |
| 1788389846 | 21.67° C | 70% | 1013 hPa | - | - | - | - |
| 1788389289 | 21.67° C | 70% | 1013 hPa | - | - | - | - |
| 1788387146 | 22.22° C | 67% | 1016.5 hPa | - | - | - | - |
| 1788379953 | 23.33° C | 69% | 1014 hPa | - | - | - | - |
| 1788378929 | 23.33° C | 69% | 1014 hPa | - | - | - | - |
| 1788377491 | 23.33° C | 69% | 1015 hPa | - | - | - | - |
| 1788375788 | 23.33° C | 69% | 1015 hPa | - | - | - | - |
| 1788374639 | 23.33° C | 71% | 1016 hPa | - | - | - | - |
| 1788373900 | 24.44° C | 66% | 1016 hPa | - | - | - | - |
| 1788373579 | 24.44° C | 66% | 1016.5 hPa | - | - | - | - |
* Rain since midnight (hover to see other rain measurements)
** Current wind speed in m/s (hover to see current wind gust speed)